• Join FlightAware (Why Join?)
  • Login
  • US Flag 
01:46AM EDT


 

Airport Tracker/Info


-or-


 

Live Flight TrackerFlight Track Log ✈ ASQ4283 ✈ 26-Jun-2013 ✈ KORD - KMLI

Flight Track Log - Related Links

Times and Time Zones

All times are in EDT time to prevent confusion due to time zone crossing. See the ASQ4283 flight status page for this flight to view local times or setup timezone preferences in your user account.

Time Position Orientation Groundspeed Altitude Reporting Facility
EDT Latitude Longitude Course Direction KTS MPH feet Rate Location/Type
07:34PM 41.9333 -87.9500 270° West 178 205 3,300  Level Chicago TRACON
07:35PM 41.9333 -88.0333 270° West 234 269 4,800 1,620 Climbing Chicago TRACON
07:37PM 41.9667 -88.3528 270° West  Level FlightAware Approximate
07:37PM 41.9283 -88.1494 267° West 250 288 7,200  Level Chicago Center
07:38PM 41.9667 -88.4660 270° West  Level FlightAware Approximate
07:38PM 41.9194 -88.2447 263° West 258 297 9,100  Level Chicago Center
07:39PM 41.9667 -88.5792 270° West  Level FlightAware Approximate
07:39PM 41.9008 -88.3447 256° West 284 327 10,200  Level Chicago Center
07:40PM 41.9667 -88.6878 270° West  Level FlightAware Approximate
07:40PM 41.8736 -88.4856 255° West 330 380 11,200  Level Chicago Center
07:41PM 41.8483 -88.6072 254° West 340 391 12,000 360 Climbing Chicago Center
07:42PM 41.8217 -88.7381 255° West 366 421 12,000  Level Chicago Center
07:43PM 41.7950 -88.8703 255° West 371 427 12,000  Level Chicago Center
07:44PM 41.7642 -89.0217 255° West 357 411 12,000  Level Chicago Center
07:45PM 41.7389 -89.1472 255° West 353 406 12,000  Level Chicago Center
07:46PM 41.7117 -89.2783 254° West 367 422 12,000  Level Chicago Center
07:47PM 41.6839 -89.4114 254° West 374 430 12,000  Level Chicago Center
07:48PM 41.6522 -89.5628 254° West 375 432 12,000 -420 Level Chicago Center
07:49PM 41.6236 -89.6961 254° West 376 433 11,200 -480 Descending Chicago Center
07:50PM 41.5964 -89.8250 254° West 366 421 11,000 -120 Descending Chicago Center
07:51PM 41.5694 -89.9511 254° West 358 412 11,000 -120 Level Chicago Center
07:52PM 41.5411 -90.0828 254° West 366 421 10,800 -900 Descending Chicago Center
07:53PM 41.5017 -90.2053 247° West 310 357 9,200 -2,400 Descending Chicago Center
07:54PM 41.4733 -90.2944 247° West 275 316 5,900 -3,240 Descending Chicago Center